{"data":{"norad_id":64102,"intl_designator":"2025-110G","name":"STARLINK-34104","alt_names":[],"object_type":"PAYLOAD","status":"ACTIVE","operator":null,"country":"US","launch_date":"2025-05-23","launch_site_code":"AFWTR","launch_vehicle":null,"mission":null,"orbit_class":"UNKNOWN","rcs_meters":null,"size_class":null,"mass_kg":null,"dimensions":null,"purposes":["comms"],"wikipedia_slug":null,"has_3d_model":false,"image_url":null,"decayed_at":null,"tle_current":{"epoch":"2026-05-24T22:48:53.510976Z","epoch_age_seconds":73156,"freshness":"FRESH","line1":"1 64102U 25110G   26144.95061934  .00025620  00000+0  76691-3 0  9992","line2":"2 64102  53.1620  32.1676 0000833  75.3742 284.7353 15.34396215 57563","mean_motion":15.34396215,"eccentricity":8.33e-5,"inclination_deg":53.162,"raan_deg":32.1676,"arg_perigee_deg":75.3742,"mean_anomaly_deg":284.7353,"bstar":0.00076691,"rev_number":5756,"period_min":93.847989582013,"perigee_km":462.14464711876,"apogee_km":463.284332977,"semimajor_km":6840.8514900479,"source":"CELESTRAK","updated_at":"2026-05-25T13:38:20.264566Z"}}}